DIAMANT B-P4 DEB, 7655

Orbit data source: Space-Track

DIAMANT B-P4 DEB, 7655 is space debris in LEO originally from a launch on Thu, 06 Feb 1975 UTC launched from the French Guiana (FRGUI). Debris objects in space refer to the collection of defunct objects orbiting the Earth. Examples of debris include non-operational satellites, rocket bodies, and fragments generated from explosions, collisions, or faulty payload assembly.

Loading next visibility...
Identifier
7655, 1975-010D
Orbit
LEO
Country
Flag of FRFR
Related business
Manufacturer
Unknown
Mission
Spacecraft
Bus & Motor
Unknown
Mass
Unknown
Launch date (UTC)
1975-02-06 (51 years ago)
Launch vehicle
Unknown
Launch site
French Guiana (FRGUI)
Object type
Payload
Rocket body
Debris
Shape & HBR
Unknown shape, 0.1 m
Radar Cross Section
Small (<0.1 m²)

Expand to show TLE details & history
Last TLE update: 1 day ago

TLE from 1 day ago
0 DIAMANT B-P4 DEB
1 07655U 75010D   26037.04424641  .00000071  00000-0  14274-3 0  9998
2 07655  49.8025  33.9705 0178381 140.3314 221.0789 13.94813074589993
Epoch: 2026-02-06T01:03Z
TLE epoch observation values (Epoch: 2026-02-06T01:03:42.889Z)
Latitude
-0.00002°
Longitude
-118.146°
Altitude
1,011.316 km
Speed
7.297 km/s
True Right ascension
02h 15m 52s
True Declination
0° 00' 00"
Sunlit
Object was in daylight at epoch
Visualization orbit readout
Latitude
Unknown
Longitude
Unknown
Altitude
Unknown
Speed
Unknown
Apparent Right ascension
Unknown
Apparent Declination
Unknown
Sunlit
N/A
Visualization observer readout
Local Sidereal Time
13:50:40
Azimuth
Unknown
Elevation
Unknown
Doppler factor
Unknown
Orbital elements
Apogee altitude
1,042.624 km
Perigee altitude
782.519 km
Semi-major axis
7,290.708 km
Eccentricity
0.01784
Inclination
49.8025°
RAAN
33.9705°
Arg. of periapsis
140.3314°
True anomaly
219.75806°
Mean anomaly
221.0789°
Eccentric anomaly
220.41627°
Mean motion
3.48649 °/min
Orbital period
103.26 mins
BSTAR
0.00014274
Loading maneuver chart data...
Computing Atmospheric mass density...
Loading historical data...
Loading historical data...
Loading historical data...
Loading historical data...
Loading historical data...
Loading historical data...
Loading historical data...
Other satellites on launch #10 in the year 1975 (1975-02-06 UTC)

Documentation

Showing up to 5 results
|